Regional Weather Roundup
Issued by NWS Albany, NY

Home | Current Version | Previous Version | Graphics & Text | Print | Product List | Glossary Off
Versions: 1 2 3 4 5 6 7 8 9 10 11 12 13 14 15 16 17 18 19 20 21 22 23 24 25 26 27 28 29 30 31 32 33 34 35 36 37 38 39 40 41 42 43 44 45 46 47 48 49 50

000
ASUS41 KALY 272310
RWRALY

NEW YORK STATE HOURLY WEATHER ROUNDUP
NATIONAL WEATHER SERVICE ALBANY NY
700 PM EDT WED AUG 27 2014

NOTE: "FAIR" INDICATES FEW OR NO CLOUDS BELOW 12,000 FEET WITH NO
SIGNIFICANT WEATHER AND/OR NO OBSTRUCTIONS TO VISIBILITY.

NYZ032-033-038>043-046>054-057>066-NYZ062>081-280000-
EAST


CITY           SKY/WX    TMP DP  RH WIND       PRES   REMARKS
ALBANY         MOCLDY    79  65  62 NW12      29.91S
GLENS FALLS    CLEAR     79  63  57 SW6       29.87R
POUGHKEEPSIE   PTCLDY    79  74  84 NE6       29.87R
NEWBURGH       MOCLDY    81  73  78 W8        29.90R
MONTGOMERY     PTCLDY    87  68  52 N9        29.87S HX  90
WHITE PLAINS   PTCLDY    81  64  56 S6        29.87F
ISLIP          PTCLDY    76  65  68 S9        29.88S
NEW YORK CITY  PTCLDY    85  64  49 S12       29.86F
CENTRAL PARK   CLEAR     85  66  53 VRB3      29.89F
$$

NYZ005>009-017-018-044>046-055-056-280000-
CENTRAL


CITY           SKY/WX    TMP DP  RH WIND       PRES   REMARKS
FULTON         CLOUDY    68  58  70 W8        29.99S
SYRACUSE       MOCLDY    71  54  54 W12       29.99R
ROME           PTCLDY    70  58  65 NW8       29.98S
ELMIRA         MOCLDY    76  66  71 MISG      29.97S
BINGHAMTON     MOCLDY    73  63  70 NW9       30.00S
MONTICELLO     CLEAR     75  66  73 NW7       29.96F
$$

NYZ026>034-041>043-280000-
NORTH


CITY           SKY/WX    TMP DP  RH WIND       PRES   REMARKS
WATERTOWN      CLOUDY    70  60  70 SW10      29.97S
FORT DRUM      NOT AVBL
MASSENA        CLOUDY    69  62  78 W3        29.94S
SARANAC LAKE   MOCLDY    68  58  70 VRB3      29.96R
PLATTSBURGH    PTCLDY    73  60  63 N9        29.90R
$$

NYZ001>004-010>016-019>021-280000-
WEST


CITY           SKY/WX    TMP DP  RH WIND       PRES   REMARKS
NIAGARA FALLS  PTCLDY    72  55  55 N14       30.02S
BUFFALO        PTCLDY    74  55  51 NW15G21   30.02S
DUNKIRK        SUNNY     72  61  68 W9        30.03F
JAMESTOWN      CLEAR     70  57  64 NW8       30.06F
WELLSVILLE     MOCLDY    71  60  68 N12       30.07S
ROCHESTER      MOCLDY    71  56  58 NW10      30.01S
PENN YAN       MOCLDY    72  61  68 VRB7      30.01R
$$

             KEY
       WCI = WIND CHILL INDEX
       VSB = VISIBILITY
       HX  = HEAT INDEX
$$


USA.gov is the U.S. government's official web portal to all federal, state and local government web resources and services.